Content
SEND FEEDBACK

Daily
Averages
Monthly
Summary
Canada

ST. JOHN'S, NEWFOUNDLAND


Home > North America > Canada > Newfoundland
Elevation: 459 feet     Latitude: 47 37N     Longitude: 052 44W

WEATHER
 
SELECT A DAY
Number of Records: 202,906;   Date Range: 1/1/95 - 7/20/14
 
SHARE

PRINT THIS DATA

[ ← Previous Day ]
WEATHER ALMANAC - APRIL 17, 2013
[ Next Day → ]
[ °C ]   °F
Weather ElementAverageHighLow
Temperature36.5 °F42.8 °F (1:30 pm)28.4 °F (1:30 am)
Dewpoint32.6 °F39.2 °F (1:30 pm)24.8 °F (1:30 am)
Humidity85.2 %100 % (3:30 pm)75 % (7:30 am)
Barometer29.82 in30.21 in (1:30 am)29.63 in (4:30 pm)
Wind Speed24.7 mph34.5 mph (1:30 pm)
Wind Gust52.9 mph (12:30 pm)
Weather ElementAverage
Visibility14.5 mi
Wind DirectionWSW (232.7 °)

Weather ElementTotal
Precipitation---
Heating Degree Days29.4 (Base 65)
Averaged from 30 records on April 17, 2013
WEATHER CONDITIONS BREAKOUT
WIND DIRECTION BREAKOUT
WEATHER BY HOUR - APRIL 17, 2013
[ °C ]   °F
Local TimeTemperatureDewpointHumidityBarometerVisibilityWind DirectionWind SpeedGust SpeedPrecipitationEventsConditions
1:30 AM28.4 °F24.8 °F86 %30.21 in15.0 miSW (220°)13.8 mph25.3 mphMostly Cloudy
2:30 AM28.4 °F24.8 °F86 %30.18 in15.0 miWSW (240°)18.4 mph25.3 mphMostly Cloudy
3:30 AM29.0 °F25.0 °F78 %30.14 in15.0 miSW (230°)16.1 mphScattered Clouds
3:30 AM28.4 °F24.8 °F86 %30.14 in15.0 miSW (230°)15.0 mph23.0 mphPartly Cloudy
4:30 AM28.4 °F24.8 °F86 %30.12 in15.0 miSW (220°)15.0 mph24.2 mphMostly Cloudy
5:30 AM30.2 °F26.6 °F86 %30.09 in15.0 miSW (220°)16.1 mph25.3 mphMostly Cloudy
6:30 AM32.0 °F26.6 °F80 %30.05 in15.0 miSW (220°)23.0 mph31.1 mphOvercast
7:30 AM33.8 °F26.6 °F75 %30.01 in15.0 miSSW (210°)21.9 mph28.8 mphOvercast
8:30 AM35.6 °F28.4 °F75 %29.95 in15.0 miSSW (200°)24.2 mph34.5 mphOvercast
9:30 AM38.0 °F33.0 °F77 %29.91 in15.0 miSSW (210°)24.2 mphOvercast
9:30 AM39.2 °F33.8 °F81 %29.91 in15.0 miSSW (210°)26.5 mph35.7 mphOvercast
10:30 AM39.2 °F35.6 °F87 %29.86 in12.0 miSSW (210°)23.0 mph34.5 mphRainLight Rain
11:17 AM39.2 °F37.4 °F93 %29.81 in15.0 miSSW (210°)25.3 mph41.4 mphRainLight Rain
11:30 AM39.2 °F37.4 °F93 %29.79 in15.0 miSSW (210°)26.5 mph44.9 mphRainLight Rain
12:30 PM39.2 °F37.4 °F93 %29.75 in15.0 miSW (220°)32.2 mph52.9 mphRainLight Rain
1:30 PM42.8 °F39.2 °F87 %29.69 in15.0 miSW (230°)34.5 mph49.5 mphRainLight Rain Showers
2:16 PM42.8 °F39.2 °F87 %29.67 in15.0 miSW (230°)31.1 mph49.5 mphOvercast
2:30 PM41.0 °F39.2 °F93 %29.67 in12.0 miSW (230°)28.8 mph42.6 mphOvercast
3:04 PM41.0 °F39.2 °F93 %29.66 in15.0 miWSW (240°)29.9 mph39.1 mphOvercast
3:30 PM40.0 °F39.0 °F94 %29.65 in10.0 miWSW (240°)25.3 mphPartly Cloudy
3:30 PM39.2 °F39.2 °F100 %29.65 in10.0 miWSW (240°)23.0 mph35.7 mphOvercast
4:30 PM41.0 °F37.4 °F87 %29.63 in15.0 miWSW (250°)27.6 mph40.3 mphMostly Cloudy
5:30 PM41.0 °F35.6 °F81 %29.64 in15.0 miWSW (250°)28.8 mph39.1 mphMostly Cloudy
6:30 PM41.0 °F33.8 °F76 %29.64 in15.0 miWest (260°)27.6 mph42.6 mphPartly Cloudy
7:30 PM39.2 °F32.0 °F75 %29.65 in15.0 miWSW (250°)28.8 mph35.7 mphPartly Cloudy
8:30 PM37.4 °F32.0 °F81 %29.65 in15.0 miWest (260°)27.6 mph36.8 mphPartly Cloudy
9:30 PM36.0 °F32.0 °F78 %29.65 in15.0 miWest (260°)27.6 mph
9:30 PM35.6 °F32.0 °F87 %29.65 in15.0 miWest (260°)29.9 mph38.0 mphClear
10:30 PM35.6 °F32.0 °F87 %29.65 in15.0 miWest (260°)25.3 mph38.0 mphClear
11:30 PM33.8 °F30.2 °F87 %29.67 in15.0 miWest (260°)24.2 mph35.7 mphClear
Hourly data recorded from CYYT, located miles away from St. John's, Newfoundland







STORIES FROM OUR PARTNERS